Regional Weather Roundup
Issued by NWS Glasgow, MT

Home | Current Version | Previous Version | Text Only | Print | Product List | Glossary On
Versions: 1 2 3 4 5 6 7 8 9 10 11 12 13 14 15 16 17 18 19 20 21 22 23 24 25 26 27
000
ASUS45 KGGW 270915
RWRGGW
HOURLY REGIONAL WEATHER ROUNDUP FOR NORTHEAST MONTANA
NATIONAL WEATHER SERVICE GLASGOW MONTANA
300 AM MDT TUE JUN 27 2017

NOTE: "FAIR" INDICATES FEW OR NO CLOUDS BELOW 12,000 FEET WITH NO
SIGNIFICANT WEATHER AND/OR OBSTRUCTIONS TO VISISBILITY.

NORTHEAST MONTANA


CITY           SKY/WX    TMP DP  RH WIND       PRES   REMARKS
GLASGOW        CLOUDY    68  39  34 E10       29.63F
PLENTYWOOD       N/A     67  40  37 SE9         N/A
WOLF POINT     CLOUDY    73  41  31 SE7       29.67F
JORDAN           N/A     69  41  36 SE5       29.63F
WINNETT          N/A     70  41  34 W3          N/A
SIDNEY         CLOUDY    67  42  40 S7        29.77R
GLENDIVE       CLOUDY    66  40  38 S14       29.74F
MALTA            N/A     62  48  60 E3G18       N/A

FORT PECK REPORTS


CITY           SKY/WX    TMP DP  RH WIND       PRES   REMARKS
FORT PECK        N/A     71  44  37 E14         N/A
THE PINES        N/A     70  39  32 CALM        N/A

SOUTHEAST MONTANA


CITY           SKY/WX    TMP DP  RH WIND       PRES   REMARKS
BILLINGS       CLOUDY    76  42  29 W16G25    29.77R
MILES CITY     CLOUDY    70  39  32 SE13      29.67F
BAKER          PTCLDY    60  38  43 SE17      29.78F
LIVINGSTON     CLOUDY    65  47  52 W6        29.90S

CENTRAL MONTANA


CITY           SKY/WX    TMP DP  RH WIND       PRES   REMARKS
HAVRE          CLOUDY    60  52  74 W6        29.65F
LEWISTOWN      CLOUDY    62  46  55 W8        29.80F
GREAT FALLS    LGT RAIN  71  46  40 SW17      29.80R
CUT BANK       CLOUDY    62  52  69 W22G31    29.75R
HELENA         CLOUDY    64  54  69 NE7       29.86F
BUTTE          PTCLDY    56  50  80 SE7       29.98F
BOZEMAN        CLOUDY    62  53  72 CALM      29.93F

WESTERN MONTANA


CITY           SKY/WX    TMP DP  RH WIND       PRES   REMARKS
MISSOULA       CLOUDY    65  55  70 S16       29.85F
KALISPELL      NOT AVBL

NORTH DAKOTA


CITY           SKY/WX    TMP DP  RH WIND       PRES   REMARKS
WILLISTON      MOCLDY    68  42  38 S12       29.76F
DICKINSON      MOCLDY    59  33  37 S25G33    29.80F
MINOT          CLOUDY    63  39  41 S22G31    29.82F
BISMARCK       MOCLDY    60  40  47 S13G24    29.93F

SOUTHERN SASKATCHEWAN


CITY           SKY/WX    TMP DP  RH WIND       PRES   REMARKS
REGINA         PTCLDY    59  45  58 SE17      29.64F
ESTEVAN        MOCLDY    61  45  55 S14       29.72F
SWIFT CURRENT  CLEAR     63  48  59 S14       29.58F





USA.gov is the U.S. government's official web portal to all federal, state and local government web resources and services.